Location: Newark
(34.3481°N, 134.0494°E)
Time: 19:39:09
(UTC+00:00)

Vanguard 3 - Pass Details

Date: 25 January 2020
Orbit: 508 x 3263 km, 33.3° (Epoch: 17 February)

Event Time Altitude Azimuth Distance (km) Brightness Sun altitude
Rises 12:01:36 0° 276° (W) 7,194 12.8 -44.4°
Reaches altitude 10° 12:06:42 10° 276° (W) 6,040 12.1 -45.5°
Enters shadow 12:22:46 70° 256° (WSW) 2,550 9.4 -48.7°
